User: anonymous   Login
Location: Mesa Vista Observatory
(35.5777°N, 105.6987°W)
Time: 04:35:03
(UTC-06:00)
Language:

Hubble Space Telescope - Orbit

View from above orbital plane
View from above orbital plane
View from above satellite
View from above satellite

Ground track
Ground track

The orbit data is extracted from the following two-line orbital elements,

1 20580U 90037B   19201.89748880 +.00000330 +00000-0 +91069-5 0  9995
2 20580 028.4705 358.9766 0002839 109.5978 025.7684 15.09246215405677
Epoch (UTC): 20 July 2019 21:32:23
Eccentricity: 0.0002839
inclination: 28.4705°
perigee height: 536 km
apogee height: 540 km
right ascension of ascending node: 358.9766°
argument of perigee: 109.5978°
revolutions per day: 15.09246215
mean anomaly at epoch: 25.7684°
orbit number at epoch: 40567

The dashed part of the orbit path shows where the satellite is in the earth's shadow,  

DLR